Overview Statistics Trail Chart Weather Telemetry Raw packets
 

This is the latest recevied weather packets stored in our database for station/object DL2AKT-20. If no packets are shown the sender has not sent any weather packets the latest 10 day(s).

<< 14 15 16 17 18 19 20 >>
Time Temp. Humidity Pressure Rain* Wind** Luminosity Snow
1777848652 22.22° C 31% 1016.6 hPa - - - -
1777847752 22.22° C 31% 1016.5 hPa - - - -
1777846852 22.22° C 31% 1016.5 hPa - - - -
1777845952 22.22° C 31% 1016.4 hPa - - - -
1777845052 22.22° C 32% 1016.1 hPa - - - -
1777844152 23.33° C 30% 1016.1 hPa - - - -
1777843251 23.89° C 29% 1016.1 hPa - - - -
1777842352 23.33° C 29% 1015.9 hPa - - - -
1777841452 23.89° C 28% 1015.9 hPa - - - -
1777840552 23.89° C 29% 1015.8 hPa - - - -
1777839651 23.33° C 29% 1015.8 hPa - - - -
1777838750 23.89° C 28% 1015.9 hPa - - - -
1777837850 23.33° C 29% 1015.7 hPa - - - -
1777836950 23.89° C 28% 1015.7 hPa - - - -
1777836050 23.89° C 28% 1015.6 hPa - - - -
1777835150 24.44° C 27% 1015.4 hPa - - - -
1777834259 25° C 26% 1015.4 hPa - - - -
1777833359 25° C 26% 1015.2 hPa - - - -
1777832459 25° C 26% 1015 hPa - - - -
1777831559 25° C 25% 1014.9 hPa - - - -
1777830659 25° C 26% 1015.1 hPa - - - -
1777829759 25.56° C 25% 1015 hPa - - - -
1777828859 25.56° C 24% 1015.1 hPa - - - -
1777827959 26.11° C 24% 1015.1 hPa - - - -
1777827059 26.67° C 22% 1015.2 hPa - - - -

* Rain since midnight (hover to see other rain measurements)
** Current wind speed in m/s (hover to see current wind gust speed)